Yatton Keynell, United Kingdom

4:36 PM BST on April 20, 2019 (GMT +0100)
Yatton Keynell

Weather History for 03740 - June, 1998

Change the Weather History Date:

Sunday, June 21, 1998

  Actual Average Record
Temperature  
Mean Temperature 60 °F -  
Max Temperature 68 °F 68 °F - ()
Min Temperature 51 °F 52 °F - ()
Degree Days  
Heating Degree Days 4    
Growing Degree Days 10 (Base 50)    
Moisture  
Dew Point 53 °F    
Average Humidity 76    
Maximum Humidity 100    
Minimum Humidity 52    
Precipitation  
Precipitation 0.00 in 0.07 in - ()
Sea Level Pressure  
Sea Level Pressure 30.04 in    
Wind  
Wind Speed 10 mph ()    
Max Wind Speed 17 mph    
Max Gust Speed -    
Visibility 5.6 miles    
Events Rain    
T = Trace of Precipitation, MM = Missing Value Source: Averaged Metar Reports

Daily Weather History Graph

Daily Weather History Graph

Search for Another Location

Airport or City:

Astronomy

Jun. 21, 1998 Rise Set
Actual Time 4:50 AM BST 9:28 PM BST
Civil Twilight 4:02 AM BST 10:16 PM BST
Nautical Twilight 2:48 AM BST 11:31 PM BST
Astronomical Twilight 1:41 AM BST 12:37 AM BST
Moon 3:16 AM BST (6/21) 6:09 PM BST (6/21)
Length of Visible Light 18h 13m
Length of Day
16h 38m
Waning Crescent, 10% of the Moon is Illuminated
Jun 21
Waning Crescent
Jun 24
New
Jul 1
First Quarter
Jul 9
Full
Jul 16
Last Quarter

Hourly Weather History & Observations

Time (BST) Temp. Dew Point Humidity Pressure Visibility Wind Dir Wind Speed Gust Speed Precip Events Conditions
12:50 AM 64.4 °F 59.0 °F 83% 29.92 in - SSE 8.1 mph - N/A   Clear
1:50 AM 64.4 °F 57.2 °F 77% 29.92 in - South 4.6 mph - N/A   Clear
2:50 AM 60.8 °F 57.2 °F 88% 29.92 in - SW 8.1 mph - N/A   Clear
3:50 AM 59.0 °F 57.2 °F 94% 29.92 in 4.3 mi SW 8.1 mph - N/A   Haze
4:50 AM 59.0 °F 57.2 °F 94% 29.95 in 3.7 mi WSW 13.8 mph - N/A   Haze
5:50 AM 57.2 °F 57.2 °F 100% 29.98 in 2.5 mi WSW 9.2 mph - N/A   Mostly Cloudy
6:50 AM 57.2 °F 55.4 °F 94% 30.01 in 2.8 mi WSW 10.4 mph - N/A   Light Drizzle
7:50 AM 59.0 °F 55.4 °F 88% 30.01 in 5.6 mi WSW 9.2 mph - N/A   Haze
8:50 AM 62.6 °F 57.2 °F 82% 30.04 in 6.2 mi WSW 10.4 mph - N/A   Scattered Clouds
9:50 AM 60.8 °F 55.4 °F 82% 30.04 in 6.2 mi WSW 11.5 mph - N/A   Scattered Clouds
10:50 AM 64.4 °F 53.6 °F 68% 30.06 in 6.2 mi WSW 13.8 mph - N/A   Scattered Clouds
11:50 AM 64.4 °F 50.0 °F 59% 30.06 in 6.2 mi WSW 16.1 mph - N/A   Partly Cloudy
12:50 PM 64.4 °F 50.0 °F 59% 30.06 in 6.2 mi West 17.3 mph - N/A   Partly Cloudy
1:50 PM 68.0 °F 51.8 °F 56% 30.06 in 6.2 mi West 17.3 mph - N/A   Partly Cloudy
2:50 PM 68.0 °F 50.0 °F 52% 30.06 in 6.2 mi West 16.1 mph - N/A   Scattered Clouds
3:50 PM 68.0 °F 51.8 °F 56% 30.06 in 6.2 mi West 15.0 mph - N/A   Scattered Clouds
4:50 PM 66.2 °F 51.8 °F 60% 30.06 in 6.2 mi West 12.7 mph - N/A   Partly Cloudy
5:50 PM 68.0 °F 53.6 °F 60% 30.06 in 6.2 mi WNW 11.5 mph - N/A   Partly Cloudy
6:50 PM 59.0 °F 55.4 °F 88% 30.09 in 6.2 mi West 16.1 mph - N/A Rain Light Rain Showers
7:50 PM 60.8 °F 50.0 °F 68% 30.09 in 6.2 mi West 16.1 mph - N/A   Scattered Clouds
8:50 PM 57.2 °F 48.2 °F 72% 30.12 in 6.2 mi West 12.7 mph - N/A   Scattered Clouds
9:50 PM 55.4 °F 48.2 °F 77% 30.15 in 6.2 mi WSW 11.5 mph - N/A   Partly Cloudy
10:50 PM 53.6 °F 48.2 °F 82% 30.15 in - WSW 6.9 mph - N/A   Clear
11:50 PM 51.8 °F 50.0 °F 94% 30.15 in - SW 5.8 mph - N/A   Clear